Find Starlink 6064

NORAD ID: 56805 Int'l Des: 2023-078 Owner: SPXS Country: US Constellation: starlink operational
LEOCIRCULAR

Aktuelle Ansicht

3D-Globus wird geladen...

Über Starlink 6064

Beschreibung wird geladen...

Nächste Überflüge

Passes for default location (London). Set your location on the main map for personalized predictions.

Höhenverlauf

Loading altitude history...

Zweizeiliger Elementsatz

1 56805U 23078AQ 26149.92989316 -.00000019 00000-0 62319-5 0 9990
2 56805 69.9993 119.5745 0003601 263.7510 96.3239 14.98328914165347
Epoch: 29. Mai 2026 • Age: 10 hours

Aktueller Status

Höhe 585.0 km
Geschwindigkeit 7.57 km/s
Subsatellitenpunkt 64.21°N, 155.35°E
Startdatum 31. Mai 2023
Alter 2.9 years
Typ internet

Technische Details

Klassifizierung Payload
Masse 305.00 kg
Trockenmasse 290.00 kg
Gesamtmasse 305.00 kg
Länge 0.20 m
Durchmesser 2.80 m
Spannweite 9.00 m
Form Box + pan
Hersteller SPXS
Bus-Typ Starlink
Phasenstatus In Orbit
Besitzer/Staat SPXS/US

Most Searched